Weather History for KSYR - March, 2012

Change the Weather History Date:

Tuesday, March 13, 2012

  Actual Average Record
Temperature  
Mean Temperature 58 °F 33 °F  
Max Temperature 68 °F 42 °F 71 °F (1990)
Min Temperature 48 °F 24 °F -6 °F (1940)
Degree Days  
Heating Degree Days 7 32  
Month to date heating degree days 335 445  
Since 1 July heating degree days 4201 5276  
Cooling Degree Days 0 0  
Month to date cooling degree days 0 0  
Year to date cooling degree days 0 0  
Growing Degree Days 11 (Base 50)    
Moisture  
Dew Point 46 °F    
Average Humidity 63    
Maximum Humidity 86    
Minimum Humidity 39    
Precipitation  
Precipitation 0.01 in 0.09 in 1.33 in (1993)
Month to date precipitation 1.21 1.14  
Year to date precipitation 6.50 5.71  
Snow  
Snow 0.00 in 0.60 in 22.10 in (1993)
Month to date snowfall 7.2 10.0  
Since 1 July snowfall 50.6 111.9  
Snow Depth 0.00 in    
Sea Level Pressure  
Sea Level Pressure 29.91 in    
Wind  
Wind Speed 12 mph (West)    
Max Wind Speed 25 mph    
Max Gust Speed 32 mph    
Visibility 10 miles    
Events Rain    
T = Trace of Precipitation, MM = Missing Value Source: NWS Daily Summary

Daily Weather History Graph

Daily Weather History Graph

Search for Another Location

Airport or City:

Trip Planner

Search our weather history database for the weather conditions in past years. The results will help you decide how hot, cold, wet, or windy it might be!

Date:

Astronomy

Mar. 13, 2012 Rise Set
Actual Time 7:19 AM EDT 7:08 PM EDT
Civil Twilight 6:50 AM EDT 7:37 PM EDT
Nautical Twilight 6:17 AM EDT 8:10 PM EDT
Astronomical Twilight 5:44 AM EDT 8:43 PM EDT
Moon 12:48 AM EDT (3/13) 10:19 AM EDT (3/13)
Length of Visible Light 12h 46m
Length of Day
11h 49m
Waning Gibbous, 66% of the Moon is Illuminated
Mar 13
Waning Gibbous
Mar 14
Last Quarter
Mar 22
New
Mar 30
First Quarter
Apr 6
Full

Hourly Weather History & Observations

Time (EDT) Temp. Dew Point Humidity Pressure Visibility Wind Dir Wind Speed Gust Speed Precip Events Conditions
12:54 AM 60.1 °F 36.0 °F 41% 29.95 in 10.0 mi WSW 6.9 mph - N/A   Mostly Cloudy
1:54 AM 60.1 °F 39.0 °F 46% 29.93 in 10.0 mi SW 8.1 mph - N/A   Mostly Cloudy
2:54 AM 60.1 °F 43.0 °F 53% 29.94 in 10.0 mi WSW 9.2 mph - N/A   Overcast
3:54 AM 59.0 °F 44.1 °F 58% 29.91 in 10.0 mi SSW 3.5 mph - N/A   Overcast
4:54 AM 57.0 °F 45.0 °F 64% 29.89 in 10.0 mi SSE 4.6 mph - N/A   Overcast
5:54 AM 60.1 °F 48.0 °F 64% 29.87 in 10.0 mi SSW 11.5 mph - N/A   Overcast
6:54 AM 59.0 °F 48.9 °F 69% 29.85 in 10.0 mi SSW 12.7 mph - N/A   Mostly Cloudy
7:54 AM 61.0 °F 50.0 °F 67% 29.86 in 10.0 mi WSW 9.2 mph - N/A   Mostly Cloudy
8:54 AM 61.0 °F 52.0 °F 72% 29.88 in 8.0 mi West 12.7 mph 23.0 mph 0.00 in Rain Light Rain
9:54 AM 57.0 °F 54.0 °F 89% 29.90 in 10.0 mi West 9.2 mph - 0.01 in Rain Light Rain
10:50 AM 60.8 °F 55.4 °F 82% 29.91 in 10.0 mi West 12.7 mph - 0.00 in   Mostly Cloudy
10:54 AM 60.1 °F 55.0 °F 83% 29.90 in 10.0 mi West 11.5 mph - 0.00 in   Mostly Cloudy
11:54 AM 64.0 °F 50.0 °F 60% 29.90 in 10.0 mi West 24.2 mph 31.1 mph N/A   Mostly Cloudy
12:54 PM 66.9 °F 48.0 °F 51% 29.90 in 10.0 mi WNW 17.3 mph 29.9 mph N/A   Mostly Cloudy
1:54 PM 63.0 °F 44.1 °F 50% 29.91 in 10.0 mi WNW 21.9 mph 28.8 mph N/A   Mostly Cloudy
2:54 PM 68.0 °F 44.1 °F 42% 29.89 in 10.0 mi West 16.1 mph 24.2 mph N/A   Scattered Clouds
3:54 PM 66.0 °F 45.0 °F 47% 29.89 in 10.0 mi WNW 11.5 mph - N/A   Scattered Clouds
4:54 PM 66.9 °F 44.1 °F 44% 29.88 in 10.0 mi West 15.0 mph - N/A   Scattered Clouds
5:54 PM 66.0 °F 43.0 °F 43% 29.88 in 10.0 mi WNW 13.8 mph - N/A   Scattered Clouds
6:54 PM 64.0 °F 43.0 °F 46% 29.89 in 10.0 mi WNW 11.5 mph - N/A   Mostly Cloudy
7:54 PM 62.1 °F 41.0 °F 46% 29.92 in 10.0 mi WNW 11.5 mph - N/A   Overcast
8:54 PM 59.0 °F 41.0 °F 51% 29.94 in 10.0 mi WNW 16.1 mph - N/A   Scattered Clouds
9:54 PM 57.0 °F 44.1 °F 62% 29.96 in 10.0 mi WNW 10.4 mph - N/A   Partly Cloudy
10:54 PM 54.0 °F 44.1 °F 69% 29.98 in 10.0 mi NW 6.9 mph - N/A   Mostly Cloudy
11:54 PM 54.0 °F 39.9 °F 59% 30.00 in 10.0 mi NNW 10.4 mph - N/A   Mostly Cloudy